| time (UTC) | temp C | wind direction | speed KPH | gust KPH | rain 1hr cm | rain 24hr cm | rain mn cm | humidity % | barometer mb |
| 20260508045553 | 8 | 160 | 24.1 | 33.8 | 0.00 | 0.00 | 0.00 | 91 | 1006.4 |
| 20260508044550 | 8 | 180 | 25.7 | 32.2 | 0.00 | 0.00 | 0.00 | 91 | 1006.3 |
| 20260508043547 | 8 | 169 | 24.1 | 29.0 | 0.00 | 0.00 | 0.00 | 92 | 1006.4 |
| 20260508042544 | 8 | 180 | 22.5 | 33.8 | 0.00 | 0.00 | 0.00 | 92 | 1006.5 |
| 20260508041601 | 8 | 184 | 24.1 | 29.0 | 0.00 | 0.00 | 0.00 | 91 | 1006.4 |
| 20260508040538 | 8 | 173 | 24.1 | 33.8 | 0.00 | 0.00 | 0.00 | 91 | 1006.4 |
| 20260508035535 | 8 | 166 | 27.4 | 35.4 | 0.00 | 0.00 | 0.00 | 91 | 1006.3 |
| 20260508034532 | 8 | 169 | 25.7 | 37.0 | 0.00 | 0.00 | 0.00 | 92 | 1006.4 |
| 20260508033528 | 8 | 161 | 24.1 | 33.8 | 0.00 | 0.00 | 0.00 | 92 | 1006.4 |
| 20260508032525 | 8 | 175 | 24.1 | 33.8 | 0.00 | 0.00 | 0.00 | 92 | 1006.4 |
| 20260508031542 | 8 | 183 | 25.7 | 37.0 | 0.00 | 0.00 | 0.00 | 92 | 1006.5 |
| 20260508030519 | 8 | 156 | 25.7 | 33.8 | 0.00 | 0.00 | 0.00 | 92 | 1006.4 |
| 20260508025515 | 8 | 149 | 27.4 | 37.0 | 0.00 | 0.00 | 0.00 | 92 | 1006.6 |
| 20260508024613 | 8 | 151 | 27.4 | 37.0 | 0.00 | 0.00 | 0.00 | 91 | 1006.6 |
| 20260508023629 | 8 | 157 | 27.4 | 37.0 | 0.00 | 0.00 | 0.00 | 91 | 1006.6 |
| 20260508022606 | 8 | 156 | 27.4 | 38.6 | 0.00 | 0.00 | 0.00 | 91 | 1006.5 |
| 20260508021623 | 8 | 154 | 29.0 | 38.6 | 0.00 | 0.00 | 0.00 | 91 | 1006.7 |
| 20260508020600 | 8 | 158 | 32.2 | 46.7 | 0.00 | 0.00 | 0.00 | 91 | 1006.8 |
| 20260508015617 | 8 | 158 | 30.6 | 43.5 | 0.00 | 0.00 | 0.00 | 91 | 1006.7 |
| 20260508014554 | 8 | 146 | 32.2 | 43.5 | 0.00 | 0.00 | 0.00 | 91 | 1006.8 |
| 20260508013551 | 8 | 158 | 30.6 | 49.9 | 0.00 | 0.00 | 0.00 | 91 | 1006.9 |
| 20260508012548 | 8 | 161 | 33.8 | 48.3 | 0.00 | 0.00 | 0.00 | 90 | 1006.9 |
| 20260508011544 | 8 | 158 | 33.8 | 46.7 | 0.00 | 0.00 | 0.00 | 90 | 1006.9 |
| 20260508010622 | 8 | 154 | 32.2 | 43.5 | 0.00 | 0.00 | 0.00 | 90 | 1007.0 |
| 20260508005538 | 8 | 143 | 30.6 | 43.5 | 0.00 | 0.00 | 0.00 | 90 | 1007.0 |
| 20260508004535 | 8 | 176 | 35.4 | 49.9 | 0.00 | 0.00 | 0.00 | 90 | 1006.9 |
| 20260508003632 | 8 | 173 | 35.4 | 46.7 | 0.00 | 0.00 | 0.00 | 89 | 1007.1 |
| 20260508002529 | 8 | 154 | 32.2 | 49.9 | 0.00 | 0.00 | 0.00 | 89 | 1007.3 |
| 20260508001526 | 8 | 153 | 35.4 | 54.7 | 0.00 | 0.00 | 0.00 | 90 | 1007.1 |
| 20260508000522 | 8 | 135 | 30.6 | 35.4 | 0.00 | 0.00 | 0.00 | 89 | 1007.2 |
| 20260507235521 | 8 | 154 | 35.4 | 46.7 | 0.00 | 0.00 | 0.00 | 89 | 1007.3 |
| 20260507234516 | 8 | 172 | 30.6 | 43.5 | 0.00 | 0.00 | 0.00 | 89 | 1007.4 |
| 20260507233613 | 8 | 147 | 32.2 | 43.5 | 0.00 | 0.00 | 0.00 | 88 | 1007.5 |
| 20260507232612 | 8 | 154 | 30.6 | 43.5 | 0.00 | 0.00 | 0.00 | 88 | 1007.6 |
| 20260507231626 | 8 | 160 | 30.6 | 48.3 | 0.00 | 0.00 | 0.00 | 88 | 1007.7 |
| 20260507230603 | 8 | 157 | 30.6 | 43.5 | 0.00 | 0.00 | 0.00 | 88 | 1007.7 |
| 20260507225600 | 8 | 177 | 29.0 | 43.5 | 0.00 | 0.00 | 0.00 | 88 | 1007.8 |
| 20260507224557 | 8 | 176 | 33.8 | 43.5 | 0.00 | 0.00 | 0.00 | 87 | 1007.8 |
| 20260507223554 | 8 | 142 | 33.8 | 43.5 | 0.00 | 0.00 | 0.00 | 87 | 1007.9 |
| 20260507222611 | 8 | 160 | 33.8 | 46.7 | 0.00 | 0.00 | 0.00 | 87 | 1008.0 |
| 20260507221548 | 7 | 143 | 35.4 | 48.3 | 0.00 | 0.00 | 0.00 | 86 | 1008.1 |
| 20260507220545 | 7 | 146 | 35.4 | 46.7 | 0.00 | 0.00 | 0.00 | 86 | 1007.9 |
| 20260507215541 | 7 | 158 | 32.2 | 48.3 | 0.00 | 0.00 | 0.00 | 86 | 1008.1 |
| 20260507214538 | 7 | 161 | 35.4 | 46.7 | 0.00 | 0.00 | 0.00 | 86 | 1008.2 |
| 20260507213535 | 7 | 165 | 33.8 | 48.3 | 0.00 | 0.00 | 0.00 | 85 | 1008.2 |
| 20260507212532 | 7 | 162 | 35.4 | 48.3 | 0.00 | 0.00 | 0.00 | 85 | 1008.3 |
| 20260507211529 | 7 | 138 | 37.0 | 51.5 | 0.00 | 0.00 | 0.00 | 85 | 1008.3 |
| 20260507210526 | 7 | 147 | 30.6 | 43.5 | 0.00 | 0.00 | 0.00 | 85 | 1008.4 |
| 20260507205523 | 7 | 170 | 33.8 | 43.5 | 0.00 | 0.00 | 0.00 | 85 | 1008.6 |
| 20260507204519 | 7 | 150 | 30.6 | 40.2 | 0.00 | 0.00 | 0.00 | 85 | 1008.5 |
| 20260507203516 | 7 | 165 | 32.2 | 43.5 | 0.00 | 0.00 | 0.00 | 85 | 1008.5 |
| 20260507202613 | 7 | 159 | 32.2 | 46.7 | 0.00 | 0.00 | 0.00 | 85 | 1008.4 |
| 20260507201610 | 7 | 156 | 32.2 | 40.2 | 0.00 | 0.00 | 0.00 | 85 | 1008.6 |
| 20260507200607 | 7 | 143 | 32.2 | 43.5 | 0.00 | 0.00 | 0.00 | 84 | 1008.7 |
| 20260507195604 | 7 | 149 | 30.6 | 43.5 | 0.00 | 0.00 | 0.00 | 85 | 1008.6 |
| 20260507194600 | 7 | 165 | 30.6 | 40.2 | 0.00 | 0.00 | 0.00 | 85 | 1008.7 |
| 20260507193618 | 7 | 164 | 30.6 | 43.5 | 0.00 | 0.00 | 0.00 | 85 | 1008.6 |
| 20260507192635 | 7 | 158 | 30.6 | 38.6 | 0.00 | 0.00 | 0.00 | 84 | 1008.6 |
| 20260507191632 | 8 | 146 | 30.6 | 43.5 | 0.00 | 0.00 | 0.00 | 84 | 1008.7 |
| 20260507190548 | 8 | 147 | 32.2 | 43.5 | 0.00 | 0.00 | 0.00 | 84 | 1008.6 |
| 20260507185545 | 8 | 146 | 29.0 | 40.2 | 0.00 | 0.00 | 0.00 | 84 | 1008.5 |
| 20260507184542 | 8 | 153 | 33.8 | 40.2 | 0.00 | 0.00 | 0.00 | 84 | 1008.6 |
| 20260507183539 | 8 | 147 | 30.6 | 43.5 | 0.00 | 0.00 | 0.00 | 84 | 1008.7 |
| 20260507182535 | 8 | 147 | 32.2 | 48.3 | 0.00 | 0.00 | 0.00 | 84 | 1008.6 |
| 20260507181552 | 8 | 154 | 30.6 | 38.6 | 0.00 | 0.00 | 0.00 | 84 | 1008.6 |
| 20260507180549 | 8 | 161 | 30.6 | 40.2 | 0.00 | 0.00 | 0.00 | 83 | 1008.7 |
| 20260507175526 | 8 | 146 | 29.0 | 35.4 | 0.00 | 0.00 | 0.00 | 84 | 1008.8 |
| 20260507174522 | 8 | 157 | 32.2 | 46.7 | 0.00 | 0.00 | 0.00 | 83 | 1008.8 |
| 20260507173519 | 8 | 158 | 32.2 | 43.5 | 0.00 | 0.00 | 0.00 | 83 | 1008.8 |
| 20260507172516 | 8 | 135 | 33.8 | 48.3 | 0.00 | 0.00 | 0.00 | 83 | 1008.9 |
| 20260507171613 | 8 | 163 | 30.6 | 43.5 | 0.00 | 0.00 | 0.00 | 83 | 1009.1 |
| 20260507170610 | 8 | 154 | 30.6 | 43.5 | 0.00 | 0.00 | 0.00 | 83 | 1009.1 |
| 20260507165607 | 8 | 180 | 29.0 | 40.2 | 0.00 | 0.00 | 0.00 | 82 | 1009.2 |
| 20260507164604 | 8 | 146 | 32.2 | 43.5 | 0.00 | 0.00 | 0.00 | 82 | 1009.4 |
| 20260507163621 | 8 | 156 | 29.0 | 48.3 | 0.00 | 0.00 | 0.00 | 83 | 1009.3 |
| 20260507162557 | 7 | 143 | 30.6 | 43.5 | 0.00 | 0.00 | 0.00 | 83 | 1009.4 |
| 20260507161555 | 7 | 165 | 32.2 | 43.5 | 0.00 | 0.00 | 0.00 | 84 | 1009.6 |
| 20260507160551 | 7 | 147 | 30.6 | 46.7 | 0.00 | 0.00 | 0.00 | 84 | 1009.6 |
| 20260507155548 | 7 | 156 | 32.2 | 43.5 | 0.00 | 0.00 | 0.00 | 84 | 1009.7 |
| 20260507154545 | 7 | 154 | 33.8 | 43.5 | 0.00 | 0.00 | 0.00 | 83 | 1009.7 |
| 20260507153542 | 8 | 154 | 29.0 | 40.2 | 0.00 | 0.00 | 0.00 | 79 | 1009.8 |
| 20260507152539 | 8 | 150 | 29.0 | 43.5 | 0.00 | 0.00 | 0.00 | 77 | 1009.9 |
| 20260507151535 | 8 | 161 | 30.6 | 38.6 | 0.00 | 0.00 | 0.00 | 76 | 1010.0 |
| 20260507150532 | 8 | 169 | 32.2 | 43.5 | 0.00 | 0.00 | 0.00 | 75 | 1010.1 |
| 20260507145529 | 8 | 157 | 32.2 | 43.5 | 0.00 | 0.00 | 0.00 | 75 | 1010.1 |
| 20260507144526 | 8 | 143 | 32.2 | 43.5 | 0.00 | 0.00 | 0.00 | 76 | 1010.1 |
| 20260507143543 | 8 | 146 | 33.8 | 48.3 | 0.00 | 0.00 | 0.00 | 74 | 1010.1 |
| 20260507142519 | 8 | 135 | 29.0 | 43.5 | 0.00 | 0.00 | 0.00 | 77 | 1010.1 |
| 20260507141516 | 8 | 135 | 32.2 | 46.7 | 0.00 | 0.00 | 0.00 | 76 | 1010.3 |
| 20260507140613 | 8 | 138 | 32.2 | 43.5 | 0.00 | 0.00 | 0.00 | 76 | 1010.3 |
| 20260507135611 | 8 | 154 | 32.2 | 46.7 | 0.00 | 0.00 | 0.00 | 75 | 1010.3 |
| 20260507134607 | 7 | 146 | 33.8 | 43.5 | 0.00 | 0.00 | 0.00 | 74 | 1010.4 |
| 20260507133604 | 8 | 150 | 32.2 | 46.7 | 0.00 | 0.00 | 0.00 | 79 | 1010.5 |
| 20260507132621 | 8 | 146 | 30.6 | 38.6 | 0.00 | 0.00 | 0.00 | 82 | 1010.5 |
| 20260507131558 | 7 | 153 | 32.2 | 43.5 | 0.00 | 0.00 | 0.00 | 82 | 1010.5 |
| 20260507130615 | 8 | 157 | 32.2 | 48.3 | 0.00 | 0.00 | 0.00 | 76 | 1010.5 |
| 20260507125552 | 8 | 139 | 35.4 | 46.7 | 0.00 | 0.00 | 0.00 | 73 | 1010.7 |
| 20260507124548 | 8 | 123 | 32.2 | 43.5 | 0.00 | 0.00 | 0.00 | 73 | 1010.8 |
| 20260507123546 | 8 | 147 | 32.2 | 43.5 | 0.00 | 0.00 | 0.00 | 71 | 1010.8 |
| 20260507122602 | 8 | 131 | 29.0 | 43.5 | 0.00 | 0.00 | 0.00 | 74 | 1010.8 |
| 20260507121539 | 8 | 134 | 27.4 | 40.2 | 0.00 | 0.00 | 0.00 | 75 | 1011.0 |
| 20260507120536 | 8 | 150 | 30.6 | 43.5 | 0.00 | 0.00 | 0.00 | 74 | 1010.8 |
| 20260507115532 | 8 | 145 | 30.6 | 40.2 | 0.00 | 0.00 | 0.00 | 73 | 1010.9 |
| 20260507114529 | 8 | 153 | 32.2 | 43.5 | 0.00 | 0.00 | 0.00 | 73 | 1011.0 |
| 20260507113526 | 8 | 157 | 32.2 | 46.7 | 0.00 | 0.00 | 0.00 | 74 | 1010.9 |
| 20260507112523 | 7 | 143 | 29.0 | 37.0 | 0.00 | 0.00 | 0.00 | 77 | 1011.1 |
| 20260507111540 | 8 | 149 | 27.4 | 37.0 | 0.00 | 0.00 | 0.00 | 75 | 1011.1 |
| 20260507110517 | 8 | 135 | 32.2 | 38.6 | 0.00 | 0.00 | 0.00 | 72 | 1011.2 |
| 20260507105614 | 8 | 150 | 30.6 | 43.5 | 0.00 | 0.00 | 0.00 | 74 | 1011.0 |
| 20260507104611 | 8 | 151 | 30.6 | 43.5 | 0.00 | 0.00 | 0.00 | 76 | 1011.0 |
| 20260507103608 | 7 | 157 | 29.0 | 46.7 | 0.00 | 0.00 | 0.00 | 77 | 1011.1 |
| 20260507102625 | 7 | 146 | 29.0 | 40.2 | 0.00 | 0.00 | 0.00 | 79 | 1011.0 |
| 20260507101601 | 7 | 156 | 25.7 | 37.0 | 0.00 | 0.00 | 0.00 | 80 | 1011.2 |
| 20260507100558 | 7 | 134 | 27.4 | 38.6 | 0.00 | 0.00 | 0.00 | 81 | 1011.3 |
| 20260507095555 | 7 | 139 | 27.4 | 35.4 | 0.00 | 0.00 | 0.00 | 81 | 1011.4 |
| 20260507094552 | 7 | 143 | 27.4 | 38.6 | 0.00 | 0.00 | 0.00 | 77 | 1011.2 |
| 20260507093549 | 7 | 147 | 27.4 | 38.6 | 0.00 | 0.00 | 0.00 | 76 | 1011.4 |
| 20260507092545 | 7 | 146 | 29.0 | 40.2 | 0.00 | 0.00 | 0.00 | 76 | 1011.4 |
| 20260507091542 | 8 | 161 | 29.0 | 40.2 | 0.00 | 0.00 | 0.00 | 75 | 1011.4 |
| 20260507090539 | 8 | 142 | 25.7 | 38.6 | 0.00 | 0.00 | 0.00 | 74 | 1011.4 |
| 20260507085536 | 8 | 151 | 24.1 | 32.2 | 0.00 | 0.00 | 0.00 | 75 | 1011.5 |
| 20260507084533 | 8 | 158 | 25.7 | 35.4 | 0.00 | 0.00 | 0.00 | 73 | 1011.5 |
| 20260507083530 | 8 | 146 | 29.0 | 43.5 | 0.00 | 0.00 | 0.00 | 72 | 1011.5 |
| 20260507082546 | 8 | 162 | 27.4 | 38.6 | 0.00 | 0.00 | 0.00 | 73 | 1011.5 |
| 20260507081523 | 8 | 150 | 25.7 | 35.4 | 0.00 | 0.00 | 0.00 | 74 | 1011.4 |
| 20260507080540 | 8 | 150 | 22.5 | 37.0 | 0.00 | 0.00 | 0.00 | 75 | 1011.6 |
| 20260507075517 | 8 | 160 | 24.1 | 35.4 | 0.00 | 0.00 | 0.00 | 74 | 1011.6 |
| 20260507074614 | 8 | 141 | 19.3 | 25.7 | 0.00 | 0.00 | 0.00 | 76 | 1011.5 |
| 20260507073611 | 7 | 135 | 24.1 | 32.2 | 0.00 | 0.00 | 0.00 | 76 | 1011.5 |
| 20260507072648 | 7 | 146 | 20.9 | 29.0 | 0.00 | 0.00 | 0.00 | 77 | 1011.5 |
| 20260507071605 | 6 | 150 | 19.3 | 25.7 | 0.00 | 0.00 | 0.00 | 73 | 1011.6 |
| 20260507070601 | 6 | 130 | 14.5 | 25.7 | 0.00 | 0.00 | 0.00 | 77 | 1011.7 |
| 20260507065558 | 6 | 143 | 22.5 | 32.2 | 0.00 | 0.00 | 0.00 | 74 | 1011.7 |
| 20260507064555 | 7 | 159 | 22.5 | 43.5 | 0.00 | 0.00 | 0.00 | 74 | 1011.6 |
| 20260507063552 | 7 | 133 | 16.1 | 24.1 | 0.00 | 0.00 | 0.00 | 71 | 1011.8 |
| 20260507062549 | 6 | 139 | 12.9 | 17.7 | 0.00 | 0.00 | 0.00 | 71 | 1012.0 |
| 20260507061546 | 6 | 161 | 16.1 | 24.1 | 0.00 | 0.03 | 0.00 | 73 | 1011.8 |
| 20260507060542 | 6 | 153 | 14.5 | 22.5 | 0.00 | 0.03 | 0.00 | 76 | 1011.9 |
| 20260507055539 | 6 | 162 | 16.1 | 25.7 | 0.00 | 0.03 | 0.00 | 78 | 1012.0 |
| 20260507054536 | 6 | 116 | 14.5 | 20.9 | 0.00 | 0.03 | 0.00 | 82 | 1012.0 |
| 20260507053533 | 6 | 105 | 17.7 | 24.1 | 0.00 | 0.03 | 0.00 | 82 | 1012.0 |
| 20260507052530 | 6 | 134 | 12.9 | 20.9 | 0.00 | 0.05 | 0.00 | 80 | 1012.0 |
| 20260507051547 | 6 | 131 | 12.9 | 17.7 | 0.00 | 0.05 | 0.00 | 80 | 1012.0 |
| 20260507050523 | 6 | 97 | 16.1 | 22.5 | 0.00 | 0.10 | 0.00 | 81 | 1012.1 |